Weather History for Newberry, SC

Change the Weather History Date:

Friday, November 30, 2012

  Actual Average (KFDW) Record (KFDW)
Temperature  
Mean Temperature 48 °F -  
Max Temperature 64 °F 60 °F 71 °F (2010)
Min Temperature 32 °F 35 °F 32 °F (2013)
Degree Days  
Heating Degree Days 17    
Moisture  
Dew Point 39 °F    
Average Humidity 80    
Maximum Humidity 100    
Minimum Humidity 45    
Precipitation  
Precipitation 0.00 in - - ()
Sea Level Pressure  
Sea Level Pressure 30.38 in    
Wind  
Wind Speed 2 mph (SSW)    
Max Wind Speed 10 mph    
Max Gust Speed -    
Visibility 10 miles    
Events      
Averages and records for this station are not official NWS values.
T = Trace of Precipitation, MM = Missing Value Source: NWS Daily Summary

Daily Weather History Graph

Daily Weather History Graph

Search for Another Location

Airport:

Trip Planner

Search our weather history database for the weather conditions in past years. The results will help you decide how hot, cold, wet, or windy it might be!

Date:

Astronomy

Nov. 30, 2012 Rise Set
Actual Time 7:14 AM EST 5:16 PM EST
Civil Twilight 6:46 AM EST 5:44 PM EST
Nautical Twilight 6:15 AM EST 6:15 PM EST
Astronomical Twilight 5:45 AM EST 6:45 PM EST
Moon 7:09 PM EST (11/30) 8:45 AM EST (11/30)
Length of Visible Light 10h 57m
Length of Day
10h 02m
Waning Gibbous, 96% of the Moon is Illuminated
Nov 30
Waning Gibbous
Dec 6
Last Quarter
Dec 13
New
Dec 20
First Quarter
Dec 28
Full

Hourly Weather History & Observations

Time (EST) Temp. Windchill Dew Point Humidity Pressure Visibility Wind Dir Wind Speed Gust Speed Precip Events Conditions
12:15 AM 33.8 °F - 32.0 °F 93% 30.42 in 10.0 mi Calm Calm - N/A   Clear
12:35 AM 33.8 °F - 32.0 °F 93% 30.42 in 10.0 mi Calm Calm - N/A   Clear
12:55 AM 33.8 °F - 32.0 °F 93% 30.42 in 10.0 mi Calm Calm - N/A   Clear
1:15 AM 33.8 °F 30.8 °F 32.0 °F 93% 30.42 in 10.0 mi South 3.5 mph - N/A   Clear
1:35 AM 32.0 °F 28.7 °F 32.0 °F 100% 30.42 in 10.0 mi South 3.5 mph - N/A   Clear
1:55 AM 32.0 °F 28.7 °F 32.0 °F 100% 30.41 in 10.0 mi SSE 3.5 mph - N/A   Clear
2:15 AM 32.0 °F 28.7 °F 32.0 °F 100% 30.41 in 10.0 mi SSE 3.5 mph - N/A   Clear
2:35 AM 32.0 °F - 32.0 °F 100% 30.41 in 10.0 mi Calm Calm - N/A   Clear
2:55 AM 32.0 °F - 32.0 °F 100% 30.41 in 10.0 mi Calm Calm - N/A   Clear
3:15 AM 32.0 °F - 32.0 °F 100% 30.41 in 10.0 mi Calm Calm - N/A   Clear
3:35 AM 32.0 °F 28.7 °F 32.0 °F 100% 30.40 in 10.0 mi South 3.5 mph - N/A   Clear
3:55 AM 32.0 °F - 32.0 °F 100% 30.40 in 10.0 mi Calm Calm - N/A   Clear
4:15 AM 32.0 °F - 32.0 °F 100% 30.40 in 10.0 mi Calm Calm - N/A   Clear
4:35 AM 32.0 °F - 32.0 °F 100% 30.40 in 10.0 mi Calm Calm - N/A   Clear
4:55 AM 32.0 °F - 32.0 °F 100% 30.40 in 10.0 mi Calm Calm - N/A   Clear
5:15 AM 32.0 °F - 32.0 °F 100% 30.40 in 10.0 mi Calm Calm - N/A   Clear
5:35 AM 32.0 °F - 32.0 °F 100% 30.40 in 10.0 mi Calm Calm - N/A   Clear
5:55 AM 32.0 °F - 32.0 °F 100% 30.41 in 10.0 mi Calm Calm - N/A   Clear
6:15 AM 32.0 °F - 32.0 °F 100% 30.41 in 10.0 mi Calm Calm - N/A   Clear
6:35 AM 32.0 °F 26.4 °F 32.0 °F 100% 30.42 in 10.0 mi North 5.8 mph - N/A   Clear
6:55 AM 32.0 °F 28.7 °F 32.0 °F 100% 30.42 in 10.0 mi North 3.5 mph - N/A   Mostly Cloudy
7:15 AM 32.0 °F 28.7 °F 32.0 °F 100% 30.42 in 10.0 mi North 3.5 mph - N/A   Mostly Cloudy
7:35 AM 32.0 °F 28.7 °F 32.0 °F 100% 30.42 in 10.0 mi North 3.5 mph - N/A   Mostly Cloudy
7:55 AM 33.8 °F - 33.8 °F 100% 30.43 in 10.0 mi Calm Calm - N/A   Overcast
8:15 AM 35.6 °F - 33.8 °F 93% 30.43 in 10.0 mi Calm Calm - N/A   Overcast
8:35 AM 37.4 °F - 35.6 °F 93% 30.43 in 10.0 mi Calm Calm - N/A   Overcast
8:55 AM 42.8 °F - 37.4 °F 81% 30.42 in 10.0 mi Calm Calm - N/A   Scattered Clouds
9:15 AM 44.6 °F - 37.4 °F 76% 30.42 in 10.0 mi Calm Calm - N/A   Clear
9:35 AM 46.4 °F - 37.4 °F 71% 30.43 in 10.0 mi Calm Calm - N/A   Clear
9:55 AM 50.0 °F - 37.4 °F 62% 30.43 in 10.0 mi SW 3.5 mph - N/A   Clear
10:15 AM 51.8 °F - 37.4 °F 58% 30.44 in 10.0 mi South 3.5 mph - N/A   Mostly Cloudy
10:35 AM 53.6 °F - 37.4 °F 54% 30.44 in 10.0 mi South 3.5 mph - N/A   Overcast
10:55 AM 55.4 °F - 37.4 °F 51% 30.43 in 10.0 mi South 3.5 mph - N/A   Scattered Clouds
11:15 AM 55.4 °F - 35.6 °F 47% 30.42 in 10.0 mi SW 4.6 mph - N/A   Clear
11:35 AM 55.4 °F - 35.6 °F 47% 30.41 in 10.0 mi SW 3.5 mph - N/A   Mostly Cloudy
11:55 AM 59.0 °F - 37.4 °F 45% 30.40 in 10.0 mi WSW 4.6 mph - N/A   Overcast
12:15 PM 59.0 °F - 37.4 °F 45% 30.39 in 10.0 mi West 4.6 mph - N/A   Overcast
12:35 PM 59.0 °F - 37.4 °F 45% 30.38 in 10.0 mi West 3.5 mph - N/A   Overcast
12:55 PM 60.8 °F - 39.2 °F 45% 30.36 in 10.0 mi WSW 4.6 mph - N/A   Scattered Clouds
1:15 PM 60.8 °F - 41.0 °F 48% 30.36 in 10.0 mi SW 8.1 mph - N/A   Scattered Clouds
1:35 PM 60.8 °F - 42.8 °F 52% 30.35 in 10.0 mi SSW 5.8 mph - N/A   Scattered Clouds
1:55 PM 62.6 °F - 44.6 °F 52% 30.34 in 10.0 mi SW 10.4 mph - N/A   Scattered Clouds
2:15 PM 64.4 °F - 44.6 °F 49% 30.33 in 10.0 mi SW 8.1 mph - N/A   Overcast
2:35 PM 62.6 °F - 46.4 °F 55% 30.32 in 10.0 mi SW 6.9 mph - N/A   Scattered Clouds
2:55 PM 62.6 °F - 46.4 °F 55% 30.32 in 10.0 mi SSW 9.2 mph - N/A   Scattered Clouds
3:15 PM 62.6 °F - 46.4 °F 55% 30.32 in 10.0 mi SSW 6.9 mph - N/A   Mostly Cloudy
3:35 PM 60.8 °F - 46.4 °F 59% 30.32 in 10.0 mi SW 9.2 mph - N/A   Mostly Cloudy
3:55 PM 60.8 °F - 46.4 °F 59% 30.32 in 10.0 mi SSW 5.8 mph - N/A   Overcast
4:15 PM 60.8 °F - 46.4 °F 59% 30.32 in 10.0 mi SW 3.5 mph - N/A   Scattered Clouds
4:35 PM 60.8 °F - 46.4 °F 59% 30.32 in 10.0 mi SSW 5.8 mph - N/A   Scattered Clouds
4:55 PM 60.8 °F - 48.2 °F 63% 30.32 in 10.0 mi Calm Calm - N/A   Mostly Cloudy
5:15 PM 59.0 °F - 48.2 °F 67% 30.33 in 10.0 mi SSW 3.5 mph - N/A   Scattered Clouds
5:35 PM 55.4 °F - 46.4 °F 72% 30.33 in 10.0 mi SSW 4.6 mph - N/A   Mostly Cloudy
5:55 PM 53.6 °F - 46.4 °F 77% 30.33 in 10.0 mi SSW 3.5 mph - N/A   Mostly Cloudy
6:15 PM 53.6 °F - 46.4 °F 77% 30.33 in 10.0 mi SW 3.5 mph - N/A   Mostly Cloudy
6:35 PM 51.8 °F - 46.4 °F 82% 30.34 in 10.0 mi SSW 3.5 mph - N/A   Overcast
6:55 PM 51.8 °F - 46.4 °F 82% 30.34 in 10.0 mi Calm Calm - N/A   Overcast
7:15 PM 50.0 °F - 46.4 °F 87% 30.35 in 10.0 mi SSW 3.5 mph - N/A   Mostly Cloudy
7:35 PM 50.0 °F - 46.4 °F 87% 30.35 in 10.0 mi Calm Calm - N/A   Mostly Cloudy
8:15 PM 50.0 °F - 46.4 °F 87% 30.35 in 10.0 mi SE 3.5 mph - N/A   Overcast
8:35 PM 50.0 °F - 46.4 °F 87% 30.35 in 10.0 mi SSE 3.5 mph - N/A   Overcast
8:55 PM 50.0 °F - 46.4 °F 87% 30.35 in 10.0 mi Calm Calm - N/A   Overcast
9:15 PM 50.0 °F - 48.2 °F 94% 30.35 in 10.0 mi SSE 3.5 mph - N/A   Overcast
9:35 PM 50.0 °F - 46.4 °F 87% 30.35 in 10.0 mi Calm Calm - N/A   Overcast
9:55 PM 50.0 °F - 46.4 °F 87% 30.35 in 10.0 mi Calm Calm - N/A   Mostly Cloudy
10:15 PM 48.2 °F - 46.4 °F 93% 30.35 in 10.0 mi SE 3.5 mph - N/A   Scattered Clouds
10:35 PM 46.4 °F 45.2 °F 46.4 °F 100% 30.36 in 10.0 mi SSE 3.5 mph - N/A   Mostly Cloudy
11:15 PM 46.4 °F 45.2 °F 46.4 °F 100% 30.35 in 10.0 mi SSE 3.5 mph - N/A   Mostly Cloudy
11:35 PM 46.4 °F 45.2 °F 46.4 °F 100% 30.36 in 10.0 mi SSE 3.5 mph - N/A   Mostly Cloudy
11:55 PM 46.4 °F 45.2 °F 46.4 °F 100% 30.36 in 10.0 mi SSE 3.5 mph - N/A   Mostly Cloudy